TimeEDT,TemperatureF,Dew PointF,Humidity,Sea Level PressureIn,VisibilityMPH,Wind Direction,Wind SpeedMPH,Gust SpeedMPH,PrecipitationIn,Events,Conditions,WindDirDegrees,DateUTC
12:55 AM,46.9,41.0,80,29.76,10.0,Calm,Calm,-,N/A,,Clear,0,2012-09-25 04:55:00
1:55 AM,46.9,39.0,74,29.78,10.0,Variable,3.5,-,N/A,,Clear,0,2012-09-25 05:55:00
2:53 AM,39.2,37.4,93,29.79,2.5,Calm,Calm,-,N/A,,Clear,0,2012-09-25 06:53:00
2:55 AM,39.9,37.9,93,29.80,2.5,Calm,Calm,-,N/A,,Clear,0,2012-09-25 06:55:00
3:29 AM,39.9,36.0,86,29.80,1.5,Calm,Calm,-,N/A,,Clear,0,2012-09-25 07:29:00
3:55 AM,39.0,36.0,89,29.81,0.8,Calm,Calm,-,N/A,,Clear,0,2012-09-25 07:55:00
4:07 AM,37.9,36.0,93,29.81,2.0,Calm,Calm,-,N/A,,Clear,0,2012-09-25 08:07:00
4:19 AM,37.9,35.1,89,29.81,0.8,Calm,Calm,-,N/A,,Clear,0,2012-09-25 08:19:00
4:40 AM,39.9,36.0,86,29.82,2.5,North,3.5,-,N/A,,Clear,350,2012-09-25 08:40:00
4:47 AM,39.9,37.9,93,29.82,9.0,North,4.6,-,N/A,,Clear,350,2012-09-25 08:47:00
4:55 AM,41.0,37.9,89,29.83,7.0,NNW,3.5,-,N/A,,Clear,330,2012-09-25 08:55:00
5:09 AM,39.9,37.9,93,29.83,2.5,North,3.5,-,N/A,,Partly Cloudy,350,2012-09-25 09:09:00
5:18 AM,39.9,37.9,93,29.83,6.0,North,4.6,-,N/A,,Partly Cloudy,10,2012-09-25 09:18:00
5:55 AM,42.1,37.9,85,29.83,10.0,NNE,6.9,-,N/A,,Clear,20,2012-09-25 09:55:00
6:55 AM,41.0,36.0,82,29.85,10.0,NE,4.6,-,N/A,,Clear,50,2012-09-25 10:55:00
7:55 AM,36.0,34.0,93,29.88,10.0,Calm,Calm,-,N/A,,Clear,0,2012-09-25 11:55:00
8:55 AM,43.0,37.9,82,29.88,10.0,Calm,Calm,-,N/A,,Clear,0,2012-09-25 12:55:00
9:55 AM,44.1,41.0,89,29.90,10.0,SE,3.5,-,N/A,,Partly Cloudy,140,2012-09-25 13:55:00
10:55 AM,48.9,41.0,74,29.91,10.0,ESE,4.6,-,N/A,,Partly Cloudy,110,2012-09-25 14:55:00
11:55 AM,52.0,41.0,66,29.91,10.0,Calm,Calm,-,N/A,,Clear,0,2012-09-25 15:55:00
12:55 PM,54.0,39.9,59,29.90,10.0,Variable,3.5,-,N/A,,Partly Cloudy,0,2012-09-25 16:55:00
1:55 PM,55.0,37.9,53,29.87,10.0,Calm,Calm,-,N/A,,Clear,0,2012-09-25 17:55:00
2:55 PM,57.9,39.0,49,29.86,10.0,Variable,6.9,-,N/A,,Clear,0,2012-09-25 18:55:00
3:55 PM,59.0,37.9,46,29.86,10.0,Variable,4.6,-,N/A,,Clear,0,2012-09-25 19:55:00
4:55 PM,59.0,33.1,38,29.86,10.0,West,4.6,-,N/A,,Clear,280,2012-09-25 20:55:00
5:55 PM,57.0,35.1,44,29.87,10.0,NW,6.9,-,N/A,,Mostly Cloudy,310,2012-09-25 21:55:00
6:55 PM,54.0,39.0,57,29.88,10.0,NNW,10.4,-,N/A,,Overcast,330,2012-09-25 22:55:00
7:55 PM,52.0,39.9,63,29.88,10.0,NW,5.8,-,N/A,,Overcast,320,2012-09-25 23:55:00
8:55 PM,50.0,39.0,66,29.90,10.0,Calm,Calm,-,N/A,,Scattered Clouds,0,2012-09-26 00:55:00
9:55 PM,46.9,39.0,74,29.91,10.0,WNW,4.6,-,N/A,,Scattered Clouds,300,2012-09-26 01:55:00
10:55 PM,46.9,39.0,74,29.91,10.0,NNW,3.5,-,N/A,,Clear,330,2012-09-26 02:55:00
11:55 PM,43.0,39.0,86,29.91,10.0,NNW,3.5,-,N/A,,Clear,340,2012-09-26 03:55:00